SCP
0 0 0 0 0 0 0 0 0 0 0 0 0 0 0 0 0 0 0 0 0 0 0 0 0 0 0 0 0 0 0 0 0 0 0 0 0 0 0 0 0 0 0
0 0 0 0 0 0 0 0 0 0 0 0 0 0 0 0 0 0 0 0 0 0 0 0 0 0 0 0 0 0 0 0 0 0 0 0 0 0 0 0 0 0 0
0 0 0 0 0 0 0 0 0 0 0 0 0 0 0 0 0 0 0 0 0 0 0 0 0 0 0 0 0 0 0 0 0 0 0 0 0 0 0 0 0 0 0
0 0 0 0 0 0 0 0 0 0 0 0 0 0 0 0 0 0 0 0 0 0 0 0 0 0 0 0 0 0 0 0 0 0 0 0 0 0 0 0 0 0 0
0 0 0 0 0 0 0 0 0 0 0 0 0 0 0 0 0 0 0 0 0 0 0 0 0 0 0 0 0 0 0 0 0 0 0 0 0 0 0 0 0 0 0
0 0 0 0 0 0 0 0 0 0 0 0 0 0 0 0 0 0 0 0 0 0 0 0 0 0 0 0 0 0 0 0 0 0 0 0 0 0 0 0 0 0 0
0 0 0 0 0 0 0 0 0 0 0 0 0 0 0 0 0 0 0 0 0 0 0 0 0 0 0 0 0 0 0 0 0 0 0 0 0 0 0 0 0 0 0
0 0 0 0 0 0 0 0 0 0 0 0 0 0 0 0 0 0 0 0 0 0 0 0 0 0 0 0 0 0 0 0 0 0 0 0 0 0 0 0 0 0 0
0 0 0 0 0 0 0 0 0 0 0 0 0 0 0 0 0 0 0 0 0 0 0 0 0 0 0 0 0 0 0 0 0 0 0 0 0 0 0 0 0 0 0
0 0 0 0 0 0 0 0 0 0 0 0 0 0 0 0 0 0 0 0 0 0 0 0 0 0 0 0 0 0 0 0 0 0 0 0 0 0 0 0 0 0 0
0 0 0 0 0 0 0 0 0 0 0 0 0 0 0 0 0 0 0 0 0 0 0 0 0 0 0 0 0 0 0 0 0 0 0 0 0 0 0 0 0 0 0
0 0 0 0 0 0 0 0 0 0 0 0 0 0 0 0 0 0 0 0 0 0 0 0 0 0 0 0 0 0 0 0 0 0 0 0 0 0 0 0 0 0 0
0 0 0 0 0 0 0 0 0 0 0 0 0 0 0 0 0 0 0 0 0 0 0 0 0 0 0 0 0 0 0 0 0 0 0 0 0 0 0 0 0 0 0
0 0 0 0 0 0 0 0 0 0 0 0 0 0 0 0 0 0 0 0 0 0 0 0 0 0 0 0 0 0 0 0 0 0 0 0 0 0 0 0 0 0 0
0 0 0 0 0 0 0 0 0 0 0 0 0 0 0 0 0 0 0 0 0 0 0 0 0 0 0 0 0 0 0 0 0 0 0 0 0 0 0 0 0 0 0
0 0 0 0 0 0 0 0 0 0 0 0 0 0 0 0 0 0 0 0 0 0 0 0 0 0 0 0 0 0 0 0 0 0 0 0 0 0 0 0 0 0 0
0 0 0 0 0 0 0 0 0 0 0 0 0 0 0 0 0 0 0 0 0 0 0 0 0 0 0 0 0 0 0 0 0 0 0 0 0 0 0 0 0 0 0
0 0 0 0 0 0 0 0 0 0 0 0 0 0 0 0 0 0 0 0 0 0 0 0 0 0 0 0 0 0 0 0 0 0 0 0 0 0 0 0 0 0 0
0 0 0 0 0 0 0 0 0 0 0 0 0 0 0 0 0 0 0 0 0 0 0 0 0 0 0 0 0 0 0 0 0 0 0 0 0 0 0 0 0 0 0
0 0 0 0 0 0 0 0 0 0 0 0 0 0 0 0 0 0 0 0 0 0 0 0 0 0 0 0 0 0 0 0 0 0 0 0 0 0 0 0 0 0 0
0 0 0 0 0 0 0 0 0 0 0 0 0 0 0 0 0 0 0 0 0 0 0 0 0 0 0 0 0 0 0 0 0 0 0 0 0 0 0 0 0 0 0
0 0 0 0 0 0 0 0 0 0 0 0 0 0 0 0 0 0 0 0 0 0 0 0 0 0 0 0 0 0 0 0 0 0 0 0 0 0 0 0 0 0 0
0 0 0 0 0 0 0 0 0 0 0 0 0 0 0 0 0 0 0 0 0 0 0 0 0 0 0 0 0 0 0 0 0 0 0 0 0 0 0 0 0 0 0
0 0 0 0 0 0 0 0 0 0 0 0 0 0 0 0 0 0 0 0 0 0 0 0 0 0 0 0 0 0 0 0 0 0 0 0 0 0 0 0 0 0 0
0 0 0 0 0 0 0 0 0 0 0 0 0 0 0 0 0 0 0 0 0 0 0 0 0 0 0 0 0 0 0 0 0 0 0 0 0 0 0 0 0 0 0
0 0 0 0 0 0 0 0 0 0 0 0 0 0 0 0 0 0 0 0 0 0 0 0 0 0 0 0 0 0 0 0 0 0 0 0 0 0 0 0 0 0 0
Wind_Speed_500mb
24 15 13 12 7 3 3 2 4 4 7 9 11 14 18 22 26 28 32 33 35 37 34 32 32 30 28 28 29 30 32 34 38 36 43 44 47 48 49 50 50 50 50
24 19 14 9 6 3 3 4 7 8 9 10 13 15 17 20 24 27 27 29 31 29 29 28 29 29 28 28 29 31 32 35 39 44 42 41 40 46 48 51 52 50 47
17 13 11 9 7 4 2 4 6 8 10 11 12 14 17 22 23 24 26 28 29 30 30 30 30 30 29 30 32 33 34 37 39 43 45 46 45 45 49 51 50 48 44
13 12 11 10 9 9 10 10 11 12 15 17 18 20 21 22 24 25 27 28 30 31 32 33 34 34 34 35 36 37 39 42 44 48 50 51 50 50 49 51 49 46 43
10 9 9 11 12 13 13 15 17 18 19 20 21 23 25 27 31 32 34 35 36 37 38 38 39 41 41 42 43 45 46 47 50 53 55 56 55 52 49 50 50 49 45
5 7 13 15 16 17 18 19 21 24 25 26 26 26 26 26 28 31 36 41 44 45 45 46 47 49 49 50 50 51 50 51 53 55 56 56 53 52 49 47 48 50 43
12 11 11 12 14 16 19 22 25 28 32 34 36 36 35 34 33 34 38 41 43 47 52 54 56 56 56 56 55 56 55 54 54 54 54 53 53 48 48 48 44 45 47
6 7 8 11 14 19 23 27 30 32 34 35 36 38 39 40 43 44 43 43 44 44 47 50 55 57 58 57 56 55 53 51 50 51 51 50 50 48 45 45 45 47 47
4 4 9 15 20 26 29 32 33 34 36 38 39 41 42 43 46 48 50 51 52 49 46 47 50 52 53 55 55 53 52 51 49 50 50 49 47 43 45 43 41 40 40
10 13 17 20 24 29 32 33 34 36 36 35 35 38 40 43 45 48 50 52 52 51 49 47 47 48 50 49 47 46 47 45 42 42 42 41 40 42 44 40 38 36 32
19 20 22 26 30 31 32 34 34 34 34 33 34 34 36 38 41 42 43 44 45 45 44 42 40 38 39 40 41 39 38 39 36 36 37 37 39 38 36 34 36 34 32
22 24 29 32 33 34 34 33 34 33 34 35 36 36 36 36 38 40 41 40 38 37 36 35 34 31 30 33 35 35 35 32 31 32 32 31 34 36 36 36 33 30 30
26 30 33 35 36 36 35 34 33 33 34 33 33 34 34 33 32 33 33 32 29 26 27 27 26 28 28 28 26 23 22 25 28 32 32 31 34 35 32 26 24 23 24
36 38 39 38 37 37 37 37 37 36 35 34 35 36 38 36 34 30 28 27 23 21 21 21 20 22 24 24 24 26 28 30 29 29 27 26 22 20 18 17 17 17 18
44 43 42 43 42 42 41 40 38 36 35 37 36 34 33 32 32 32 28 28 26 25 26 25 23 24 25 27 24 24 23 24 22 19 15 12 12 13 15 15 16 17 18
50 48 46 45 43 42 42 42 43 40 40 37 36 34 33 33 34 36 27 31 31 27 25 25 26 24 22 21 20 19 16 13 8 6 6 8 10 10 10 12 15 16 18
53 50 47 44 42 42 43 40 37 38 35 37 36 35 32 31 29 30 29 29 27 26 23 23 22 19 16 14 11 8 6 5 6 6 7 7 8 10 11 14 15 17 19
51 50 47 44 42 40 38 36 35 32 32 33 34 33 31 25 24 28 29 30 25 23 19 16 14 10 7 4 2 2 2 3 5 6 9 10 11 10 12 15 17 19 21
48 47 45 42 40 38 37 35 33 31 29 28 28 32 31 29 30 30 29 21 17 13 10 7 5 3 3 2 3 4 6 7 8 8 9 10 11 12 14 15 17 19 21
45 44 42 40 39 37 37 35 32 31 30 30 31 31 31 29 28 27 22 16 12 8 6 5 5 6 7 9 9 8 8 8 8 9 11 13 14 14 15 16 19 22 24
41 41 41 41 40 38 35 33 32 31 32 31 30 29 28 25 22 20 15 11 8 8 9 10 11 12 12 13 12 12 11 11 12 13 13 14 15 16 18 20 22 24 25
36 37 38 38 37 35 34 32 31 30 28 27 25 23 19 16 15 14 12 12 12 13 15 16 15 16 16 15 14 14 14 13 12 13 14 16 17 19 20 22 22 23 24
33 32 32 33 32 30 29 28 26 25 24 22 20 18 15 13 14 14 16 17 19 20 20 20 19 18 17 16 15 14 13 12 13 14 16 17 18 18 19 20 22 23 25
23 24 25 26 25 24 23 22 21 20 19 19 19 17 16 16 17 19 22 23 24 23 21 20 19 17 16 14 13 13 12 12 13 14 15 15 16 18 20 20 22 24 25
14 15 15 16 17 16 15 15 16 16 17 19 19 17 18 20 24 26 26 25 24 23 21 18 17 15 14 13 12 12 12 12 13 14 14 16 18 19 20 21 23 24 24
9 9 8 8 8 8 8 10 13 15 18 20 20 20 23 26 27 27 27 25 23 21 19 17 15 14 13 12 11 9 9 9 11 12 15 17 18 19 20 22 24 24 26
Wind_Direction_500mb
185 186 158 143 137 145 103 51 343 323 299 284 278 265 261 260 262 263 264 272 271 269 269 269 269 269 267 265 268 271 273 273 269 281 278 289 292 295 296 297 298 298 298
112 113 106 109 110 81 13 345 329 324 315 300 284 275 275 277 278 280 271 271 275 275 270 268 268 268 269 271 275 276 277 278 277 280 279 292 292 293 293 294 296 299 299
105 109 116 117 106 93 39 1 341 324 313 305 298 285 275 272 275 278 278 277 275 274 273 271 270 270 272 275 277 281 283 283 284 288 290 296 293 292 293 294 296 299 300
102 101 95 82 61 40 24 8 349 334 327 321 310 300 292 289 286 281 277 273 272 272 273 272 273 273 274 276 280 283 287 290 291 290 290 291 292 294 293 294 295 296 296
98 75 52 41 30 21 9 2 355 350 343 336 327 318 312 304 296 292 288 284 281 278 276 275 276 277 279 281 284 286 287 288 288 287 287 288 289 290 290 291 292 292 295
93 67 65 52 38 25 18 12 6 358 351 343 336 331 326 320 309 300 295 290 285 282 279 279 279 279 280 280 280 281 281 282 282 283 284 285 288 289 289 288 290 295 301
110 81 51 28 14 4 360 354 346 339 335 331 327 324 321 318 313 308 302 298 295 292 289 284 280 279 278 278 278 279 278 279 279 279 279 280 281 283 284 286 290 292 294
96 49 20 358 347 342 339 336 332 327 321 312 306 304 304 304 303 302 299 298 296 295 294 293 290 287 283 280 278 277 277 275 276 276 276 277 279 282 284 288 293 295 295
196 313 320 321 319 320 319 315 310 307 304 298 292 290 289 291 289 287 286 286 287 287 286 285 285 284 283 281 281 279 278 277 277 277 278 279 280 283 285 291 294 298 305
268 283 290 295 304 311 313 313 311 309 306 303 301 299 298 296 294 292 290 288 286 283 283 283 283 281 279 278 279 280 278 277 275 272 271 273 276 280 289 301 302 303 305
276 284 293 300 304 308 310 311 311 312 311 310 309 309 309 307 305 303 301 299 298 297 295 292 290 288 286 283 279 275 272 269 266 265 268 273 281 289 295 295 297 296 298
279 288 296 300 304 308 308 308 307 307 306 304 302 301 299 298 298 298 298 299 300 301 300 299 296 293 290 288 286 283 281 279 275 278 284 289 288 282 291 297 299 300 297
284 291 294 296 298 299 300 301 301 304 305 307 308 310 309 306 302 300 299 296 297 302 302 303 299 295 292 286 281 273 270 275 283 280 279 278 277 284 292 299 307 312 303
288 292 294 297 301 305 309 310 310 311 311 312 314 315 313 310 305 302 296 296 296 294 293 294 296 294 291 289 285 283 283 280 278 280 280 280 283 296 316 325 321 313 311
288 293 295 297 299 302 302 301 300 298 299 301 301 301 299 299 299 296 297 293 291 293 292 289 294 293 294 295 294 291 291 292 295 294 289 294 316 331 334 330 328 331 333
279 283 289 289 292 295 296 296 293 292 291 291 290 293 296 296 297 299 303 295 295 295 292 288 291 291 294 293 294 295 298 303 307 302 311 329 346 353 347 341 342 341 345
269 276 281 282 284 290 291 286 282 283 285 283 289 294 294 298 304 303 304 301 300 298 293 289 287 289 289 290 293 304 314 324 335 350 1 16 19 18 8 356 355 357 5
269 274 277 279 281 286 284 282 279 277 280 285 289 287 296 299 304 313 311 306 304 302 296 291 287 286 282 278 296 334 2 27 37 40 37 35 31 23 14 9 10 11 12
266 268 272 275 279 278 274 274 274 275 274 276 278 284 291 290 298 305 304 302 302 299 290 277 259 222 181 142 112 95 81 70 56 46 41 38 34 29 24 14 10 13 16
267 269 271 271 272 271 272 272 274 276 274 273 274 272 275 282 289 296 295 291 284 269 243 201 168 141 126 118 108 94 84 79 72 58 49 43 38 33 29 26 21 20 21
265 268 269 273 274 272 271 270 269 267 267 267 268 269 274 275 280 280 274 259 230 195 168 149 142 134 125 116 111 105 92 77 64 55 48 42 38 36 33 30 25 21 19
268 268 271 271 270 269 270 270 267 264 262 263 264 265 264 262 256 244 228 203 180 162 151 142 137 130 123 115 106 94 83 75 68 60 53 46 42 39 36 33 30 27 25
271 270 269 269 270 270 269 266 263 260 257 253 248 245 243 237 225 209 188 172 160 153 149 141 133 125 117 109 99 89 81 73 66 57 51 44 40 39 39 35 34 32 30
278 277 275 274 272 268 264 260 254 247 240 232 225 224 221 210 196 179 167 161 158 153 148 142 133 125 116 107 101 95 86 72 60 51 46 44 41 41 38 36 36 36 34
296 288 282 275 270 265 256 245 234 225 217 211 210 208 200 185 174 167 163 161 158 155 151 144 136 130 125 116 107 94 78 68 58 52 51 50 47 45 45 45 46 45 43
344 329 312 294 274 253 231 213 203 197 195 195 194 187 177 171 168 164 162 162 159 155 154 152 148 145 137 124 107 87 73 59 53 45 49 51 48 47 47 47 48 48 49
Wind_Speed_850mb
24 15 13 12 7 3 3 2 4 4 7 9 11 14 18 22 26 28 32 33 35 37 34 32 32 30 28 28 29 30 32 34 38 36 43 44 47 48 49 50 50 50 50
24 19 14 9 6 3 3 4 7 8 9 10 13 15 17 20 24 27 27 29 31 29 29 28 29 29 28 28 29 31 32 35 39 44 42 41 40 46 48 51 52 50 47
17 13 11 9 7 4 2 4 6 8 10 11 12 14 17 22 23 24 26 28 29 30 30 30 30 30 29 30 32 33 34 37 39 43 45 46 45 45 49 51 50 48 44
13 12 11 10 9 9 10 10 11 12 15 17 18 20 21 22 24 25 27 28 30 31 32 33 34 34 34 35 36 37 39 42 44 48 50 51 50 50 49 51 49 46 43
10 9 9 11 12 13 13 15 17 18 19 20 21 23 25 27 31 32 34 35 36 37 38 38 39 41 41 42 43 45 46 47 50 53 55 56 55 52 49 50 50 49 45
5 7 13 15 16 17 18 19 21 24 25 26 26 26 26 26 28 31 36 41 44 45 45 46 47 49 49 50 50 51 50 51 53 55 56 56 53 52 49 47 48 50 43
12 11 11 12 14 16 19 22 25 28 32 34 36 36 35 34 33 34 38 41 43 47 52 54 56 56 56 56 55 56 55 54 54 54 54 53 53 48 48 48 44 45 47
6 7 8 11 14 19 23 27 30 32 34 35 36 38 39 40 43 44 43 43 44 44 47 50 55 57 58 57 56 55 53 51 50 51 51 50 50 48 45 45 45 47 47
4 4 9 15 20 26 29 32 33 34 36 38 39 41 42 43 46 48 50 51 52 49 46 47 50 52 53 55 55 53 52 51 49 50 50 49 47 43 45 43 41 40 40
10 13 17 20 24 29 32 33 34 36 36 35 35 38 40 43 45 48 50 52 52 51 49 47 47 48 50 49 47 46 47 45 42 42 42 41 40 42 44 40 38 36 32
19 20 22 26 30 31 32 34 34 34 34 33 34 34 36 38 41 42 43 44 45 45 44 42 40 38 39 40 41 39 38 39 36 36 37 37 39 38 36 34 36 34 32
22 24 29 32 33 34 34 33 34 33 34 35 36 36 36 36 38 40 41 40 38 37 36 35 34 31 30 33 35 35 35 32 31 32 32 31 34 36 36 36 33 30 30
26 30 33 35 36 36 35 34 33 33 34 33 33 34 34 33 32 33 33 32 29 26 27 27 26 28 28 28 26 23 22 25 28 32 32 31 34 35 32 26 24 23 24
36 38 39 38 37 37 37 37 37 36 35 34 35 36 38 36 34 30 28 27 23 21 21 21 20 22 24 24 24 26 28 30 29 29 27 26 22 20 18 17 17 17 18
44 43 42 43 42 42 41 40 38 36 35 37 36 34 33 32 32 32 28 28 26 25 26 25 23 24 25 27 24 24 23 24 22 19 15 12 12 13 15 15 16 17 18
50 48 46 45 43 42 42 42 43 40 40 37 36 34 33 33 34 36 27 31 31 27 25 25 26 24 22 21 20 19 16 13 8 6 6 8 10 10 10 12 15 16 18
53 50 47 44 42 42 43 40 37 38 35 37 36 35 32 31 29 30 29 29 27 26 23 23 22 19 16 14 11 8 6 5 6 6 7 7 8 10 11 14 15 17 19
51 50 47 44 42 40 38 36 35 32 32 33 34 33 31 25 24 28 29 30 25 23 19 16 14 10 7 4 2 2 2 3 5 6 9 10 11 10 12 15 17 19 21
48 47 45 42 40 38 37 35 33 31 29 28 28 32 31 29 30 30 29 21 17 13 10 7 5 3 3 2 3 4 6 7 8 8 9 10 11 12 14 15 17 19 21
45 44 42 40 39 37 37 35 32 31 30 30 31 31 31 29 28 27 22 16 12 8 6 5 5 6 7 9 9 8 8 8 8 9 11 13 14 14 15 16 19 22 24
41 41 41 41 40 38 35 33 32 31 32 31 30 29 28 25 22 20 15 11 8 8 9 10 11 12 12 13 12 12 11 11 12 13 13 14 15 16 18 20 22 24 25
36 37 38 38 37 35 34 32 31 30 28 27 25 23 19 16 15 14 12 12 12 13 15 16 15 16 16 15 14 14 14 13 12 13 14 16 17 19 20 22 22 23 24
33 32 32 33 32 30 29 28 26 25 24 22 20 18 15 13 14 14 16 17 19 20 20 20 19 18 17 16 15 14 13 12 13 14 16 17 18 18 19 20 22 23 25
23 24 25 26 25 24 23 22 21 20 19 19 19 17 16 16 17 19 22 23 24 23 21 20 19 17 16 14 13 13 12 12 13 14 15 15 16 18 20 20 22 24 25
14 15 15 16 17 16 15 15 16 16 17 19 19 17 18 20 24 26 26 25 24 23 21 18 17 15 14 13 12 12 12 12 13 14 14 16 18 19 20 21 23 24 24
9 9 8 8 8 8 8 10 13 15 18 20 20 20 23 26 27 27 27 25 23 21 19 17 15 14 13 12 11 9 9 9 11 12 15 17 18 19 20 22 24 24 26
Wind_Direction_850mb
185 186 158 143 137 145 103 51 343 323 299 284 278 265 261 260 262 263 264 272 271 269 269 269 269 269 267 265 268 271 273 273 269 281 278 289 292 295 296 297 298 298 298
112 113 106 109 110 81 13 345 329 324 315 300 284 275 275 277 278 280 271 271 275 275 270 268 268 268 269 271 275 276 277 278 277 280 279 292 292 293 293 294 296 299 299
105 109 116 117 106 93 39 1 341 324 313 305 298 285 275 272 275 278 278 277 275 274 273 271 270 270 272 275 277 281 283 283 284 288 290 296 293 292 293 294 296 299 300
102 101 95 82 61 40 24 8 349 334 327 321 310 300 292 289 286 281 277 273 272 272 273 272 273 273 274 276 280 283 287 290 291 290 290 291 292 294 293 294 295 296 296
98 75 52 41 30 21 9 2 355 350 343 336 327 318 312 304 296 292 288 284 281 278 276 275 276 277 279 281 284 286 287 288 288 287 287 288 289 290 290 291 292 292 295
93 67 65 52 38 25 18 12 6 358 351 343 336 331 326 320 309 300 295 290 285 282 279 279 279 279 280 280 280 281 281 282 282 283 284 285 288 289 289 288 290 295 301
110 81 51 28 14 4 360 354 346 339 335 331 327 324 321 318 313 308 302 298 295 292 289 284 280 279 278 278 278 279 278 279 279 279 279 280 281 283 284 286 290 292 294
96 49 20 358 347 342 339 336 332 327 321 312 306 304 304 304 303 302 299 298 296 295 294 293 290 287 283 280 278 277 277 275 276 276 276 277 279 282 284 288 293 295 295
196 313 320 321 319 320 319 315 310 307 304 298 292 290 289 291 289 287 286 286 287 287 286 285 285 284 283 281 281 279 278 277 277 277 278 279 280 283 285 291 294 298 305
268 283 290 295 304 311 313 313 311 309 306 303 301 299 298 296 294 292 290 288 286 283 283 283 283 281 279 278 279 280 278 277 275 272 271 273 276 280 289 301 302 303 305
276 284 293 300 304 308 310 311 311 312 311 310 309 309 309 307 305 303 301 299 298 297 295 292 290 288 286 283 279 275 272 269 266 265 268 273 281 289 295 295 297 296 298
279 288 296 300 304 308 308 308 307 307 306 304 302 301 299 298 298 298 298 299 300 301 300 299 296 293 290 288 286 283 281 279 275 278 284 289 288 282 291 297 299 300 297
284 291 294 296 298 299 300 301 301 304 305 307 308 310 309 306 302 300 299 296 297 302 302 303 299 295 292 286 281 273 270 275 283 280 279 278 277 284 292 299 307 312 303
288 292 294 297 301 305 309 310 310 311 311 312 314 315 313 310 305 302 296 296 296 294 293 294 296 294 291 289 285 283 283 280 278 280 280 280 283 296 316 325 321 313 311
288 293 295 297 299 302 302 301 300 298 299 301 301 301 299 299 299 296 297 293 291 293 292 289 294 293 294 295 294 291 291 292 295 294 289 294 316 331 334 330 328 331 333
279 283 289 289 292 295 296 296 293 292 291 291 290 293 296 296 297 299 303 295 295 295 292 288 291 291 294 293 294 295 298 303 307 302 311 329 346 353 347 341 342 341 345
269 276 281 282 284 290 291 286 282 283 285 283 289 294 294 298 304 303 304 301 300 298 293 289 287 289 289 290 293 304 314 324 335 350 1 16 19 18 8 356 355 357 5
269 274 277 279 281 286 284 282 279 277 280 285 289 287 296 299 304 313 311 306 304 302 296 291 287 286 282 278 296 334 2 27 37 40 37 35 31 23 14 9 10 11 12
266 268 272 275 279 278 274 274 274 275 274 276 278 284 291 290 298 305 304 302 302 299 290 277 259 222 181 142 112 95 81 70 56 46 41 38 34 29 24 14 10 13 16
267 269 271 271 272 271 272 272 274 276 274 273 274 272 275 282 289 296 295 291 284 269 243 201 168 141 126 118 108 94 84 79 72 58 49 43 38 33 29 26 21 20 21
265 268 269 273 274 272 271 270 269 267 267 267 268 269 274 275 280 280 274 259 230 195 168 149 142 134 125 116 111 105 92 77 64 55 48 42 38 36 33 30 25 21 19
268 268 271 271 270 269 270 270 267 264 262 263 264 265 264 262 256 244 228 203 180 162 151 142 137 130 123 115 106 94 83 75 68 60 53 46 42 39 36 33 30 27 25
271 270 269 269 270 270 269 266 263 260 257 253 248 245 243 237 225 209 188 172 160 153 149 141 133 125 117 109 99 89 81 73 66 57 51 44 40 39 39 35 34 32 30
278 277 275 274 272 268 264 260 254 247 240 232 225 224 221 210 196 179 167 161 158 153 148 142 133 125 116 107 101 95 86 72 60 51 46 44 41 41 38 36 36 36 34
296 288 282 275 270 265 256 245 234 225 217 211 210 208 200 185 174 167 163 161 158 155 151 144 136 130 125 116 107 94 78 68 58 52 51 50 47 45 45 45 46 45 43
344 329 312 294 274 253 231 213 203 197 195 195 194 187 177 171 168 164 162 162 159 155 154 152 148 145 137 124 107 87 73 59 53 45 49 51 48 47 47 47 48 48 49